EW4462 Weather Reports


Display with metric or nautical units.
time (UTC)temp
F
wind
direction
speed
MPH
gust
MPH
rain 1hr
in
rain 24hr
in
rain mn
in
humidity
%
barometer
mb
20260508233744 73 161 0.0 0.0 0.00 0.00 0.00 68 1014.7
20260508232745 72 100 0.0 0.0 0.00 0.00 0.00 68 1014.7
20260508231743 72 115 0.0 1.0 0.00 0.00 0.00 69 1014.8
20260508230755 72 114 0.0 0.0 0.00 0.00 0.00 68 1014.9
20260508225747 73 92 0.0 0.0 0.00 0.00 0.00 68 1014.9
20260508222404 73 136 0.0 0.0 0.00 0.00 0.00 69 1015.2
20260508215058 73 118 0.0 5.0 0.00 0.00 0.00 67 1015.6
20260508212925 73 108 0.0 6.0 0.00 0.00 0.00 68 1015.7
20260508204608 73 78 0.0 0.0 0.00 0.00 0.00 68 1015.8
20260508203554 73 123 0.0 0.0 0.00 0.00 0.00 68 1015.8
20260508202538 73 69 0.0 0.0 0.00 0.00 0.00 68 1015.7
20260508200423 73 127 0.0 0.0 0.00 0.00 0.00 68 1015.9
20260508195435 72 90 0.0 1.0 0.00 0.00 0.00 69 1015.9
20260508194448 72 86 0.0 3.0 0.00 0.00 0.00 69 1016.1
20260508193449 73 108 0.0 0.0 0.00 0.00 0.00 68 1016.1
20260508191249 74 100 0.0 0.0 0.00 0.00 0.00 68 1016.3
20260508190239 73 114 0.0 0.0 0.00 0.00 0.00 68 1016.4
20260508185240 73 143 0.0 0.0 0.00 0.00 0.00 68 1016.4
20260508184240 73 101 0.0 0.0 0.00 0.00 0.00 70 1016.5
20260508183203 72 91 0.0 0.0 0.00 0.00 0.00 71 1016.5
20260508182218 71 106 0.0 0.0 0.00 0.00 0.00 71 1016.6
20260508181200 71 105 0.0 0.0 0.00 0.00 0.00 72 1016.6
20260508180131 70 231 0.0 0.0 0.00 0.00 0.00 73 1016.8
20260508175118 69 225 0.0 0.0 0.00 0.00 0.00 75 1016.9
20260508174117 68 223 0.0 0.0 0.00 0.00 0.00 77 1017.0
20260508173123 67 127 0.0 0.0 0.00 0.00 0.00 79 1017.0
20260508171040 65 130 0.0 0.0 0.00 0.00 0.00 81 1017.1
20260508170017 65 5 0.0 0.0 0.00 0.00 0.00 82 1017.2
20260508165021 65 9 0.0 0.0 0.00 0.00 0.00 83 1017.1
20260508164037 64 5 0.0 0.0 0.00 0.00 0.00 83 1017.2
20260508163028 64 5 0.0 0.0 0.00 0.00 0.00 83 1017.2
20260508162031 64 5 0.0 0.0 0.00 0.00 0.00 84 1017.4
20260508161005 64 0 0.0 0.0 0.00 0.00 0.00 84 1017.3
20260508160001 63 0 0.0 0.0 0.00 0.00 0.00 85 1017.3
20260508155006 63 0 0.0 0.0 0.00 0.00 0.00 85 1017.4
20260508152912 63 326 0.0 0.0 0.00 0.00 0.00 86 1017.4
20260508151930 62 321 0.0 0.0 0.00 0.00 0.00 86 1017.4
20260508145742 62 321 0.0 0.0 0.00 0.00 0.00 87 1017.4
20260508144728 62 321 0.0 0.0 0.00 0.00 0.00 87 1017.1
20260508143727 62 321 0.0 0.0 0.00 0.00 0.00 87 1017.1
20260508142743 62 350 0.0 0.0 0.00 0.00 0.00 87 1017.1
20260508141745 61 351 0.0 0.0 0.00 0.00 0.00 87 1017.0
20260508135549 61 351 0.0 0.0 0.00 0.00 0.00 87 1016.9
20260508132209 61 351 0.0 0.0 0.00 0.00 0.00 87 1016.8
20260508131215 61 351 0.0 0.0 0.00 0.00 0.00 87 1016.6
20260508130152 61 355 0.0 0.0 0.00 0.00 0.00 87 1016.7
20260508125212 61 355 0.0 0.0 0.00 0.00 0.00 87 1016.6
20260508124154 61 355 0.0 0.0 0.00 0.00 0.00 87 1016.5
20260508123210 61 355 0.0 0.0 0.00 0.00 0.00 87 1016.5
20260508122150 61 355 0.0 0.0 0.00 0.00 0.00 87 1016.6
20260508121207 61 355 0.0 0.0 0.00 0.00 0.00 87 1016.6
20260508120200 61 351 0.0 0.0 0.00 0.00 0.00 87 1016.6
20260508115144 61 351 0.0 0.0 0.00 0.00 0.00 87 1016.5
20260508114109 61 351 0.0 0.0 0.00 0.00 0.00 87 1016.5
20260508113059 61 310 0.0 0.0 0.00 0.00 0.00 87 1016.5
20260508112040 61 310 0.0 0.0 0.00 0.00 0.00 87 1016.6
20260508111100 61 308 0.0 0.0 0.00 0.00 0.00 87 1016.6
20260508103812 62 311 0.0 0.0 0.00 0.00 0.00 87 1016.4
20260508102829 62 311 0.0 0.0 0.00 0.00 0.00 87 1016.6
20260508101827 62 311 0.0 0.0 0.00 0.00 0.00 87 1016.6
20260508100800 62 311 0.0 0.0 0.00 0.00 0.00 87 1016.7
20260508095736 62 17 0.0 0.0 0.00 0.00 0.00 87 1016.7
20260508094747 62 90 0.0 0.0 0.00 0.00 0.00 87 1016.6
20260508092547 62 90 0.0 0.0 0.00 0.00 0.00 87 1016.7
20260508091530 62 90 0.0 0.0 0.00 0.00 0.00 86 1016.7
20260508090522 62 68 0.0 0.0 0.00 0.00 0.00 86 1016.7
20260508085540 62 68 0.0 0.0 0.00 0.00 0.00 86 1016.8
20260508084513 62 62 0.0 0.0 0.00 0.00 0.00 86 1016.8
20260508083521 62 62 0.0 0.0 0.00 0.00 0.00 86 1017.0
20260508081324 62 331 0.0 0.0 0.00 0.00 0.00 86 1017.2
20260508075212 62 331 0.0 0.0 0.00 0.00 0.00 87 1017.2
20260508074155 62 331 0.0 0.0 0.00 0.00 0.00 86 1017.4
20260508073141 62 331 0.0 0.0 0.00 0.00 0.00 86 1017.3
20260508072142 62 34 0.0 0.0 0.00 0.00 0.00 86 1017.4
20260508071133 62 88 0.0 0.0 0.00 0.00 0.00 86 1017.5
20260508064955 62 88 0.0 0.0 0.00 0.00 0.00 85 1017.5
20260508064011 62 90 0.0 0.0 0.00 0.00 0.00 85 1017.6
20260508063001 62 90 0.0 0.0 0.00 0.00 0.00 85 1017.6
20260508061953 62 89 0.0 0.0 0.00 0.00 0.00 86 1017.6
20260508054703 62 84 0.0 0.0 0.00 0.00 0.00 86 1017.6
20260508053644 62 121 0.0 0.0 0.00 0.00 0.00 85 1017.5
20260508052654 62 121 0.0 0.0 0.00 0.00 0.00 86 1017.7
20260508051638 62 121 0.0 0.0 0.00 0.00 0.00 86 1017.7
20260508045444 62 121 0.0 0.0 0.00 0.00 0.00 85 1017.7
20260508043250 62 121 0.0 0.0 0.00 0.00 0.00 85 1017.4
20260508042225 62 121 0.0 0.0 0.00 0.00 0.00 85 1017.2
20260508041236 62 121 0.0 0.0 0.00 0.00 0.00 85 1017.0
20260508040214 62 121 0.0 0.0 0.00 0.00 0.00 85 1017.0
20260508034040 62 112 0.0 0.0 0.00 0.00 0.00 85 1016.7
20260508033042 62 112 0.0 0.0 0.00 0.00 0.00 85 1016.5
20260508032102 63 114 0.0 0.0 0.00 0.00 0.00 85 1016.3
20260508031045 63 120 0.0 0.0 0.00 0.00 0.00 84 1016.2
20260508030106 63 120 0.0 0.0 0.00 0.00 0.00 84 1016.2
20260508025058 63 117 0.0 0.0 0.00 0.00 0.00 83 1016.0
20260508022907 64 117 0.0 0.0 0.00 0.00 0.00 82 1015.7
20260508021849 64 117 0.0 0.0 0.00 0.00 0.00 81 1015.8
20260508020907 64 152 0.0 0.0 0.00 0.00 0.00 80 1015.7
20260508014802 66 72 0.0 0.0 0.00 0.00 0.00 77 1015.6
20260508013758 67 101 0.0 0.0 0.00 0.00 0.00 76 1015.6
20260508012800 67 92 0.0 0.0 0.00 0.00 0.00 75 1015.5
20260508011818 67 104 0.0 0.0 0.00 0.00 0.00 75 1015.5
20260508010836 67 93 0.0 0.0 0.00 0.00 0.00 75 1015.5
20260508005855 67 161 0.0 0.0 0.00 0.00 0.00 76 1015.6
20260508004819 67 109 0.0 0.0 0.00 0.00 0.00 75 1015.5
20260508002712 68 94 0.0 0.0 0.00 0.00 0.00 73 1015.6
20260508001700 68 92 0.0 0.0 0.00 0.00 0.00 74 1015.5
20260507234435 69 111 0.0 0.0 0.00 0.00 0.00 72 1015.7